Weather History for Banff, AB

Change the Weather History Date:

Thursday, April 11, 2013

  Actual Average Record
Temperature  
Mean Temperature 32 °F -  
Max Temperature 36 °F - - ()
Min Temperature 27 °F - - ()
Degree Days  
Heating Degree Days 33    
Moisture  
Dew Point 26 °F    
Average Humidity 77    
Maximum Humidity 91    
Minimum Humidity 64    
Precipitation  
Precipitation 0.05 in - - ()
Sea Level Pressure  
Sea Level Pressure 29.95 in    
Wind  
Wind Speed 4 mph ()    
Max Wind Speed 9 mph    
Max Gust Speed -    
T = Trace of Precipitation, MM = Missing Value Source: Averaged Metar Reports

Daily Weather History Graph

Daily Weather History Graph

Search for Another Location

Airport:

Trip Planner

Search our weather history database for the weather conditions in past years. The results will help you decide how hot, cold, wet, or windy it might be!

Date:

Astronomy

Apr. 11, 2013 Rise Set
Actual Time 6:54 AM MDT 8:32 PM MDT
Civil Twilight 6:20 AM MDT 9:07 PM MDT
Nautical Twilight 5:37 AM MDT 9:50 PM MDT
Astronomical Twilight 4:50 AM MDT 10:37 PM MDT
Moon 7:19 AM MDT (4/11) 10:24 PM MDT (4/11)
Length of Visible Light 14h 47m
Length of Day
13h 37m
New Moon, 2% of the Moon is Illuminated
Apr 11
New Moon
Apr 18
First Quarter
Apr 25
Full
May 2
Last Quarter
May 9
New

Hourly Weather History & Observations

Time (MDT) Temp. Windchill Dew Point Humidity Pressure Visibility Wind Dir Wind Speed Gust Speed Precip Events Conditions
12:00 AM 36.5 °F 31.8 °F 29.7 °F 76% 29.82 in - West 5.8 mph - N/A   Unknown
1:00 AM 36.5 °F 32.7 °F 28.4 °F 72% 29.84 in - West 4.6 mph - N/A   Unknown
2:00 AM 34.9 °F 32.0 °F 26.2 °F 71% 29.86 in - West 3.5 mph - N/A   Unknown
3:00 AM 34.3 °F 31.4 °F 25.5 °F 70% 29.86 in - West 3.5 mph - N/A   Unknown
4:00 AM 34.0 °F 28.8 °F 25.5 °F 71% 29.86 in - SW 5.8 mph - N/A   Unknown
5:00 AM 31.5 °F 26.8 °F 24.6 °F 76% 29.88 in - SW 4.6 mph - N/A   Unknown
6:00 AM 31.1 °F - 23.9 °F 75% 29.88 in - WSW 2.3 mph - N/A   Unknown
7:00 AM 29.5 °F - 24.1 °F 80% 29.90 in - SW 2.3 mph - N/A   Unknown
8:00 AM 31.1 °F 25.4 °F 24.8 °F 77% 29.92 in - SW 5.8 mph - N/A   Unknown
9:00 AM 31.3 °F 25.6 °F 25.0 °F 77% 29.93 in - West 5.8 mph - N/A   Unknown
10:00 AM 31.6 °F 28.3 °F 28.2 °F 87% 29.94 in - WSW 3.5 mph - N/A   Unknown
11:00 AM 31.1 °F 26.4 °F 28.8 °F 91% 29.95 in - SW 4.6 mph - N/A   Unknown
12:00 PM 31.8 °F 27.3 °F 28.4 °F 87% 29.95 in - SW 4.6 mph - 0.05 in   Unknown
1:00 PM 34.9 °F 32.0 °F 28.6 °F 78% 29.93 in - SSE 3.5 mph - N/A   Unknown
2:00 PM 33.1 °F 26.1 °F 29.3 °F 86% 29.94 in - NE 8.1 mph - N/A   Unknown
3:00 PM 34.9 °F 29.0 °F 28.2 °F 77% 29.95 in - NE 6.9 mph - N/A   Unknown
4:00 PM 34.9 °F 27.7 °F 25.7 °F 69% 29.96 in - NE 9.2 mph - N/A   Unknown
5:00 PM 35.6 °F 29.2 °F 26.8 °F 70% 29.96 in - NE 8.1 mph - N/A   Unknown
6:00 PM 35.6 °F 29.2 °F 24.8 °F 65% 29.99 in - NE 8.1 mph - N/A   Unknown
7:00 PM 33.4 °F 28.1 °F 22.3 °F 64% 30.02 in - West 5.8 mph - N/A   Unknown
8:00 PM 31.3 °F 27.9 °F 23.4 °F 72% 30.03 in - NNE 3.5 mph - N/A   Unknown
9:00 PM 30.2 °F 23.4 °F 24.4 °F 79% 30.08 in - NE 6.9 mph - N/A   Unknown
10:00 PM 28.4 °F 23.3 °F 24.3 °F 84% 30.12 in - ENE 4.6 mph - N/A   Unknown
11:00 PM 27.3 °F 23.4 °F 23.0 °F 84% 30.14 in - NE 3.5 mph - N/A   Unknown